User: anonymous   Login
Location: Unspecified
(0.0000°N, 0.0000°E)
Time: 19:09:43
(UTC+00:00)
Language:

Explorer 27 - Orbit

View from above orbital plane
View from above orbital plane
View from above satellite
View from above satellite

Ground track
Ground track

The orbit data is extracted from the following two-line orbital elements,

1  1328U 65032A   19340.75681671 -.00000054 +00000-0 +45072-4 0  9990
2  1328 041.1828 137.5915 0257667 143.0957 218.7830 13.38614369668770
Epoch (UTC): 06 December 2019 18:09:48
Eccentricity: 0.0257667
inclination: 41.1828°
perigee height: 921 km
apogee height: 1307 km
right ascension of ascending node: 137.5915°
argument of perigee: 143.0957°
revolutions per day: 13.38614369
mean anomaly at epoch: 218.7830°
orbit number at epoch: 66877

The dashed part of the orbit path shows where the satellite is in the earth's shadow,  

DLR